Other Public Products
Issued by NWS Charleston, SC

Current Version | Previous Version | Graphics & Text | Print | Product List | Glossary On
Versions: 1 2 3 4 5 6 7 8 9 10 11 12 13 14 15 16 17 18 19 20 21 22 23 24 25 26 27 28 29 30 31 32 33 34 35 36 37 38 39 40 41 42 43 44 45 46 47 48 49 50
514
FPUS82 KCHS 261027
OPUCHS

TEST...KCHS/KSAV Gateway Observations...TEST
National Weather Service Charleston SC
600 AM EDT WED APR 26 2017

NOTE: "fair" indicates few or no clouds below 12,000 feet with no
significant weather and/or obstructions to visibility.

SCZ050-WAZ558-NCZ071-TXZ119-213-PAZ071-DCZ001-FLZ074-172-MI076-
NYZ176-178-MAZ016-IL014-TNZ027-NJZ106-GAZ044-MD014-261100-

...Gateway Observations for Charleston International...

CITY           SKY/WX    TMP DP  RH WIND       PRES   REMARKS
Chas Airport   PTCLDY    61  58  90 CALM      29.77S
Seattle        CLOUDY    50  48  93 SW15      29.81R
Charlotte      CLEAR     56  53  90 SE5       29.78R
Dallas DFW     CLOUDY    75  70  84 S9        29.42F
Dallas Love    CLOUDY    75  69  81 S10       29.44F
Philladelphia  CLOUDY    56  55  97 NE13G22   29.70S
Wash National  CLOUDY    58  57  97 NW8       29.72R
Baltimore      CLOUDY    56  56 100 N7        29.70S
Miami          CLEAR     67  60  78 CALM      29.89R
Detroit        MOCLDY    55  53  93 E7        29.70F
Newark         LGT RAIN  53  53 100 NE16      29.74F
Laguardia      LGT RAIN  55  52  89 NE13      29.75S FOG
J F K          RAIN      55  54  96 N15       29.75S FOG
Boston Logan   LGT RAIN  50  50 100 NE10      29.91S VSB 1
Ft. Lauderdale CLEAR     66  60  81 CALM      29.88R
Chicago O`Hare CLOUDY    65  54  67 S12       29.47F
Chicago Midway CLOUDY    66  56  70 S12       29.48F
Houston Bush   CLOUDY    77  68  73 S16G22    29.52S
Houston Hobby  CLOUDY    76  69  79 S16G24    29.52S
Nashville      CLEAR     57  54  89 S5        29.73R
Atlanta        CLEAR     60  55  83 SW3       29.77R

$$

GAZ044-118-TXZ119-213-NCZ071-DCZ001-MDZ014-506-PAZ021-071-NJZ106-
NYZ176-178-MAZ106-OHZ011-021-055-MIZ076-KYZ091-ILZ014-INZ047-
MNZ060-ONZ431-261100-

...Gateway Observations for Savannah International...

CITY           SKY/WX    TMP DP  RH WIND       PRES   REMARKS
Savannah Arpt  CLEAR     63  56  78 CALM      29.80R
Atlanta        CLEAR     60  55  83 SW3       29.77R
Charlotte      CLEAR     56  53  90 SE5       29.78R
Dallas DFW     CLOUDY    75  70  84 S9        29.42F
Houston Bush   CLOUDY    77  68  73 S16G22    29.52S
Wash National  CLOUDY    58  57  97 NW8       29.72R
Wash Dulles    CLOUDY    56  55  97 N6        29.73R FOG
Baltimore      CLOUDY    56  56 100 N7        29.70S
Philadelphia   CLOUDY    56  55  97 NE13G22   29.70S
Newark         LGT RAIN  53  53 100 NE16      29.74F
Laguardia      LGT RAIN  55  52  89 NE13      29.75S FOG
J F K          RAIN      55  54  96 N15       29.75S FOG
Boston         LGT RAIN  50  50 100 NE10      29.91S VSB 1
Pittsburg      PTCLDY    50  50 100 CALM      29.77R
Akron          CLOUDY    54  51  90 SE9       29.76R
Cleveland      PTCLDY    56  51  84 S8        29.75R
Cincinnati     CLEAR     57  54  89 S6        29.70S
Columbus       CLEAR     52  52 100 CALM      29.73R
Detroit        MOCLDY    55  53  93 E7        29.70F
Chicago O`Hare CLOUDY    65  54  67 S12       29.47F
Minneapolis    LGT RAIN  40  37  89 N14       29.48S WCI  32
Indianapolis   PTCLDY    61  55  81 SE12      29.62S
Toronto Canada PTCLDY    48  46  93 E8        29.80F

$$




USA.gov is the U.S. government's official web portal to all federal, state and local government web resources and services.